User: anonymous   Login
Location: Unspecified
(0.0000°N, 0.0000°E)
Time: 13:07:29
(UTC+00:00)
Language:

Kosmos-1704 - Orbit

View from above orbital plane
View from above orbital plane
View from above satellite
View from above satellite

Ground track
Ground track

The orbit data is extracted from the following two-line orbital elements,

1 16291U 85110A   18199.88742502 +.00000034 +00000-0 +19858-4 0  9990
2 16291 082.9363 106.9242 0030922 192.9250 237.7024 13.74602015636830
Epoch (UTC): 18 July 2018 21:17:53
Eccentricity: 0.0030922
inclination: 82.9363°
perigee height: 960 km
apogee height: 1006 km
right ascension of ascending node: 106.9242°
argument of perigee: 192.9250°
revolutions per day: 13.74602015
mean anomaly at epoch: 237.7024°
orbit number at epoch: 63683

The dashed part of the orbit path shows where the satellite is in the earth's shadow,  

DLR